Retour au catalogue

STARLINK-35092

ActifCommunicationsVLEO
NORAD 65342·PAYLOAD·🇺🇸 United States

Lancé Aug 27, 2025 depuis Cape Canaveral Space Force Station

Loading…

Prochains Passages (prochaines 24 heures)

TLE

FraisSource: CelesTrak SupGP

Époque: Sep 15, 2026, 03:04 UTC

1 65342C 25189V   26258.12826389 -.00004749  00000+0 -15284-3 0  2583
2 65342  53.1587  45.0950 0001466  84.5862 323.7814 15.31675348    16

Suivez STARLINK-35092 en temps réel avec AllMySat

Download on the App Store